Bryce Canyon, UT

8:58 AM MST on December 14, 2019 (GMT -0700)
Bryce Canyon

Weather History for KBCE - October, 2019

Change the Weather History Date:

Saturday, October 12, 2019

  Actual Average Record
Temperature  
Mean Temperature 29 °F -  
Max Temperature 55 °F 59 °F 75 °F (2015)
Min Temperature 3 °F 28 °F 3 °F (2019)
Degree Days  
Heating Degree Days 36    
Moisture  
Dew Point -8 °F    
Average Humidity 23    
Maximum Humidity 46    
Minimum Humidity 8    
Precipitation  
Precipitation 0.00 in - - ()
Sea Level Pressure  
Sea Level Pressure 30.13 in    
Wind  
Wind Speed 6 mph (SW)    
Max Wind Speed 13 mph    
Max Gust Speed 20 mph    
Visibility 10 miles    
Events      
Averages and records for this station are not official NWS values.
T = Trace of Precipitation, MM = Missing Value Source: NWS Daily Summary

Daily Weather History Graph

Daily Weather History Graph

Search for Another Location

Airport or City:

Astronomy

Oct. 12, 2019 Rise Set
Actual Time 7:33 AM MDT 6:55 PM MDT
Civil Twilight 7:07 AM MDT 7:21 PM MDT
Nautical Twilight 6:37 AM MDT 7:52 PM MDT
Astronomical Twilight 6:06 AM MDT 8:22 PM MDT
Moon 6:51 PM MDT (10/12) 6:17 AM MDT (10/12)
Length of Visible Light 12h 14m
Length of Day
11h 21m
Waxing Gibbous, 99% of the Moon is Illuminated
Oct 12
Waxing Gibbous
Oct 13
Full
Oct 21
Last Quarter
Oct 27
New
Nov 4
First Quarter

Hourly Weather History & Observations

Time (MDT) Temp. Windchill Dew Point Humidity Pressure Visibility Wind Dir Wind Speed Gust Speed Precip Events Conditions
12:53 AM 10.9 °F 1.4 °F -11.0 °F 37% 30.20 in 10.0 mi West 5.8 mph - N/A   Clear
1:53 AM 14.0 °F 8.2 °F -9.9 °F 34% 30.17 in 10.0 mi West 3.5 mph - N/A   Clear
2:53 AM 16.0 °F 8.8 °F -9.0 °F 32% 30.16 in 10.0 mi West 4.6 mph - N/A   Clear
3:53 AM 12.0 °F 5.9 °F -9.9 °F 37% 30.14 in 10.0 mi West 3.5 mph - N/A   Clear
4:53 AM 10.9 °F 2.9 °F -11.0 °F 37% 30.15 in 10.0 mi West 4.6 mph - N/A   Clear
5:53 AM 9.0 °F 0.6 °F -11.0 °F 40% 30.16 in 10.0 mi West 4.6 mph - N/A   Clear
6:53 AM 3.9 °F -3.4 °F -13.0 °F 46% 30.20 in 10.0 mi SW 3.5 mph - N/A   Clear
7:53 AM 5.0 °F - -13.0 °F 43% 30.30 in 10.0 mi Calm Calm - N/A   Clear
8:53 AM 24.1 °F 18.2 °F -7.1 °F 25% 30.23 in 10.0 mi West 4.6 mph - N/A   Clear
9:53 AM 37.9 °F - -6.0 °F 15% 30.18 in 10.0 mi Calm Calm - N/A   Clear
10:53 AM 45.0 °F 40.6 °F -9.9 °F 10% 30.14 in 10.0 mi SSE 8.1 mph - N/A   Clear
11:53 AM 48.0 °F - -9.0 °F 9% 30.13 in 10.0 mi SSE 11.5 mph - N/A   Clear
12:53 PM 51.1 °F - -8.0 °F 9% 30.11 in 10.0 mi South 10.4 mph - N/A   Clear
1:53 PM 53.1 °F - -7.1 °F 8% 30.05 in 10.0 mi SE 11.5 mph 19.6 mph N/A   Clear
2:53 PM 55.0 °F - -7.1 °F 8% 30.01 in 10.0 mi SE 12.7 mph 19.6 mph N/A   Clear
3:53 PM 55.0 °F - -6.0 °F 8% 30.03 in 10.0 mi SSE 9.2 mph - N/A   Clear
4:53 PM 55.0 °F - -5.1 °F 8% 30.04 in 10.0 mi SE 9.2 mph - N/A   Clear
5:53 PM 54.0 °F - -6.0 °F 8% 30.04 in 10.0 mi SSE 10.4 mph - N/A   Clear
6:53 PM 46.0 °F 41.9 °F -5.1 °F 12% 30.11 in 10.0 mi SSE 8.1 mph - N/A   Clear
7:53 PM 30.0 °F 26.5 °F -7.1 °F 20% 30.21 in 10.0 mi WSW 3.5 mph - N/A   Clear
8:53 PM 26.1 °F 19.4 °F -6.0 °F 25% 30.14 in 10.0 mi WSW 5.8 mph - N/A   Clear
9:53 PM 24.1 °F 18.2 °F -6.0 °F 27% 30.08 in 10.0 mi West 4.6 mph - N/A   Clear
10:53 PM 25.0 °F 18.1 °F -4.0 °F 28% 30.04 in 10.0 mi West 5.8 mph - N/A   Clear
11:53 PM 25.0 °F 14.8 °F -4.0 °F 28% 30.02 in 10.0 mi West 10.4 mph - N/A   Clear